Location: Helsinki
(60.1699°N, 24.9384°E)
Time: 12:42:22
(UTC+02:00)

Transit 4A - Pass Details

Date: 05 November 2020
Orbit: 862 x 982 km, 66.8° (Epoch: 26 November)

Event Time Altitude Azimuth Distance (km) Brightness Sun altitude
Rises 15:02:23 0° 224° (SW) 3,635 13.9 5.9°
Reaches altitude 10° 15:04:54 10° 224° (SW) 2,704 13.6 5.7°
Maximum altitude 15:11:16 82° 137° (SE) 995 8.3 5.1°
Drops below altitude 10° 15:17:44 10° 52° (NE) 2,748 9.7 4.5°
Sets 15:20:18 0° 52° (NE) 3,697 10.3 4.3°
